This is the latest recevied weather packets stored in our database for station/object KO6MEX-13. If no packets are shown the sender has not sent any weather packets the latest 10 day(s).
| Time | Temp. | Humidity | Pressure | Rain* | Wind** | Luminosity | Snow |
|---|---|---|---|---|---|---|---|
| 1777403456 | 18.89° C | 56% | 1021.8 hPa | 0 mm | - | 714 W/m² | - |
| 1777403150 | 18.89° C | 59% | 1021.8 hPa | 0 mm | - | 701 W/m² | - |
| 1777402846 | 18.89° C | 56% | 1021.9 hPa | 0 mm | - | 714 W/m² | - |
| 1777402543 | 18.33° C | 57% | 1022.1 hPa | 0 mm | - | 724 W/m² | - |
| 1777402240 | 18.33° C | 58% | 1022 hPa | 0 mm | - | 739 W/m² | - |
| 1777401935 | 17.78° C | 59% | 1022.3 hPa | 0 mm | - | 744 W/m² | - |
| 1777401634 | 17.78° C | 61% | 1022.3 hPa | 0 mm | - | 740 W/m² | - |
| 1777401331 | 17.78° C | 62% | 1022.3 hPa | 0 mm | - | 744 W/m² | - |
| 1777401027 | 17.78° C | 60% | 1022.2 hPa | 0 mm | - | 752 W/m² | - |
| 1777400723 | 17.78° C | 60% | 1022.3 hPa | 0 mm | - | 778 W/m² | - |
| 1777400420 | 17.78° C | 59% | 1022.3 hPa | 0 mm | - | 758 W/m² | - |
| 1777400120 | 17.22° C | 59% | 1022.3 hPa | 0 mm | - | 736 W/m² | - |
| 1777399818 | 17.22° C | 59% | 1022.4 hPa | 0 mm | - | 737 W/m² | - |
| 1777399514 | 17.22° C | 60% | 1022.5 hPa | 0 mm | - | 101 W/m² | - |
| 1777399212 | 17.22° C | 59% | 1022.5 hPa | 0 mm | - | 66 W/m² | - |
| 1777398909 | 17.22° C | 59% | 1022.4 hPa | 0 mm | - | 62 W/m² | - |
| 1777398606 | 16.67° C | 59% | 1022.4 hPa | 0 mm | - | 61 W/m² | - |
| 1777398302 | 16.67° C | 59% | 1022.3 hPa | 0 mm | - | 58 W/m² | - |
| 1777398000 | 17.22° C | 59% | 1022.4 hPa | 0 mm | - | 56 W/m² | - |
| 1777397696 | 17.22° C | 59% | 1022.4 hPa | 0 mm | - | 55 W/m² | - |
| 1777397392 | 16.67° C | 59% | 1022.2 hPa | 0 mm | - | 53 W/m² | - |
| 1777397089 | 16.67° C | 59% | 1022.5 hPa | 0 mm | - | 52 W/m² | - |
| 1777396785 | 16.67° C | 59% | 1022.4 hPa | 0 mm | - | 50 W/m² | - |
| 1777396482 | 16.67° C | 59% | 1022.5 hPa | 0 mm | - | 48 W/m² | - |
| 1777396179 | 16.67° C | 58% | 1022.4 hPa | 0 mm | - | 47 W/m² | - |
* Rain latest hour (hover to see other rain measurements)
** Current wind speed in m/s (hover to see current wind gust speed)